Regional Weather Roundup
Issued by NWS Grand Forks, ND

Home | Current Version | Previous Version | Graphics & Text | Print | Product List | Glossary On
Versions: 1 2 3 4 5 6 7 8 9 10 11 12 13 14 15 16 17 18 19 20 21 22 23 24 25 26 27 28 29 30 31 32 33 34 35 36 37 38 39 40 41 42 43 44 45 46 47 48 49 50
000
ASUS43 KFGF 200231
RWRFGF
PRAIRIE TO PINES  WEATHER ROUNDUP
NATIONAL WEATHER SERVICE EASTERN NORTH DAKOTA/GRAND FORKS ND
800 PM CST FRI JAN 19 2018

 **SATELLITE DATA USED TO AUGMENT SKY COVER AT AUTOMATED STATIONS**
 *****  WEATHER ACROSS EASTERN NORTH DAKOTA  *****

CITY           SKY/WX    TMP DP  RH WIND       PRES   REMARKS
GRAND FORKS    MOCLDY    34  30  85 W9        29.59R
GRAND FRKS AFB MOCLDY    36  29  76 NW9       29.59R
DEVILS LAKE    FAIR      30  27  88 W9        29.60R WCI  22
FARGO          FAIR      33  30  88 SW9       29.64R
WAHPETON ARPT  FAIR      32  28  86 W9        29.66R WCI  24
$$

 ***** WEATHER ACROSS CENTRAL AND WESTERN NORTH DAKOTA  *****

CITY           SKY/WX    TMP DP  RH WIND       PRES   REMARKS
BISMARCK       FAIR      37  31  78 W9        29.69R
MINOT          FAIR      36  26  67 SW14      29.62R
JAMESTOWN      FAIR      35  29  78 W10       29.63R
MINOT AFB      FAIR      32  26  78 W12       29.60R WCI  23
GARRISON         N/A     34  26  72 W14       29.65R WCI  25
WILLISTON      FAIR      31  24  75 VRB3      29.68R
DICKINSON      MOCLDY    35  30  82 W16       29.67S
HETTINGER      CLOUDY    34  31  88 W13       29.74R WCI  25
$$

 *****  OTHER AIRPORT OBSERVATIONS IN OUR AREA  *****

CITY           SKY/WX    TMP DP  RH WIND       PRES   REMARKS
WALHALLA       FAIR      37  30  75 W8        29.54S
GRAFTON AIRPOR FAIR      32  30  93 W9        29.59R WCI  24
VALLEY CITY AR FAIR      34  34 100 W14       29.66R WCI  24
CANDO          FAIR      28  28 100 W8        29.60S WCI  20
CAVALIER APRT    N/A     37  30  75 W12       29.54R
GWINNER          N/A     32  28  86 SW9       29.66S WCI  24
SHEYENNE NWR     N/A     35  31  87 W8        29.95S
ROLLA          FAIR      32  27  80 W15       29.57R WCI  22
 ***** THE ABOVE OBSERVATIONS ARE NON NWS ARE NOT QUALITY
       CONTROLLED AND MAY MIS-REPORT RAIN FOR SNOW...
$$

  *****  WEATHER ACROSS NORTHERN MINNESOTA  *****

CITY           SKY/WX    TMP DP  RH WIND       PRES   REMARKS
FLAG ISLAND    MOCLDY    34  28  80 NW13      29.49R WCI  25
WARROAD        CLOUDY    36  32  87 W8        29.52R
ROSEAU         MOCLDY    34  28  80 W6        29.53R
HALLOCK        FAIR      25  21  86 SW7       29.55R WCI  17
THF RVR FALLS  FAIR      34  30  85 W9        29.57R
BAUDETTE       CLOUDY    35  30  82 NW14      29.48R
WASKISH        MOCLDY    30  28  93 W5        29.54R
CROOKSTON      FAIR      32  30  93 W12       29.61R WCI  23
STEPHEN NDAWN    N/A     30  27  86 SW3         N/A
GREENBUSH NDAW   N/A     28  27  93 W7          N/A  WCI  21
$$
  *****  WEATHER ACROSS CENTRAL AND WEST MINNESOTA  *****

CITY           SKY/WX    TMP DP  RH WIND       PRES   REMARKS
FOSSTON        FAIR      28  25  86 SW7       29.59R WCI  21
BEMIDJI        FAIR      32  28  86 SW7       29.55R
PARK RAPIDS    FAIR      31  26  82 W10       29.57R WCI  22
ELBOW LAKE     FAIR      32  29  92 NW6       29.65R
WADENA         FAIR      30  27  86 W8        29.61R WCI  23
DETROIT LAKES  FAIR      34  30  86 W8        29.63R
MOORHEAD       FAIR      30  28  93 W5        29.65R
FERGUS FALLS   FAIR      28  28 100 W5        29.65R WCI  23
MORRIS MN      FAIR      36  30  80 NW9       29.65S
STAPLES        FAIR      30  27  86 W8        29.61R WCI  23
$$
  *****  WEATHER ELSEWHERE ACROSS MINNESOTA  *****

CITY           SKY/WX    TMP DP  RH WIND       PRES   REMARKS
DULUTH         FAIR      40  28  62 W13       29.48R
INTRNTL FALLS  CLOUDY    37  29  72 NW20G26   29.46R
ELY            CLOUDY    36  30  80 SW8       29.46R
CLOQUET          N/A     36 N/A N/A W5        29.51R
WHEATON        FAIR      36  28  75 W3        29.68R
BRAINERD       FAIR      38  28  67 W9        29.58R
HIBBING        FAIR      35  28  75 W6        29.49R
ALEXANDRIA     FAIR      35  30  82 W9        29.63R
SAINT CLOUD    FAIR      36  29  75 W8        29.60R
MINNEAPOLIS    MOCLDY    38  33  82 S3        29.60R
$$

  *****  WEATHER ACROSS SOUTH DAKOTA  *****

CITY           SKY/WX    TMP DP  RH WIND       PRES   REMARKS
SIOUX FALLS    CLOUDY    36  32  85 CALM      29.70R
BROOKINGS      FAIR      36  29  75 N3        29.68R
WATERTOWN      FAIR      34  29  82 CALM      29.67R
HURON          FAIR      33  29  85 W5        29.70S
SISSETON         N/A     39  30  70 W8        29.66R
ABERDEEN       FAIR      30  27  88 W3        29.70R
MITCHELL       FAIR      36  32  85 W6        29.73R
PIERRE         FAIR      34  31  88 W6        29.73R
MOBRIDGE       FAIR      33  28  81 N5        29.69R
RAPID CITY     FAIR      29  26  89 CALM      29.74R
$$

  *****  SOME WEATHER IN NEARBY STATES *****

CITY           SKY/WX    TMP DP  RH WIND       PRES   REMARKS
GLASGOW MT     FAIR      29  24  82 SW6       29.69R WCI  23
GREAT FALLS MT FAIR      31  18  58 SW15      29.74S WCI  20
CHEYENNE WY    FAIR      47  18  31 W14       29.75S
SCOTTSBLUFF NE FAIR      36  29  75 NE12      29.71R
OMAHA NE       CLOUDY    37  28  70 S8        29.74R
DES MOINES IA  CLOUDY    41  28  60 SW12      29.73R
DAVENPORT IA   FAIR      44  27  51 SW22G29   29.72S
CHICAGO IL     CLOUDY    40  28  62 SW20G31   29.71F
EAU CLAIRE WI  FAIR      34  28  79 SW6       29.58R
LA CROSSE WI   FAIR      40  30  67 SW6       29.63R
$$

  *****  SOME NATIONAL WEATHER *****

CITY           SKY/WX    TMP DP  RH WIND       PRES   REMARKS
LA GUARDIA NY  FAIR      39  19  44 SW9       29.98F
RALEIGH NC     FAIR      35  24  64 SW3       30.16S
ATLANTA GA     FAIR      42  12  29 W6        30.23R
NEW ORLEANS LA MOCLDY    48  36  63 SE5       30.26S
OKLAHOMA CITY  MOCLDY    48  37  65 S15       29.88R
ALBUQUERQUE NM MOCLDY    42  12  29 SE7       30.00R
SALT LAKE CITY LGT SNOW  35  33  92 N13       29.95R FOG
LOS ANGELES CA MOCLDY    58  51  78 W14       29.91S
BOISE ID       FAIR      39  25  57 W7        29.97S
SEATTLE WA     CLOUDY    46  36  68 S10       29.89R
$$

*** WEATHER ACROSS MANITOBA...SASKATCHEWAN AND ONTARIO ***
                ***ONTARIO***

CITY           SKY/WX    TMP DP  RH WIND       PRES   REMARKS
GERALDTON      DRIZZLE   34  30  86 W12G21    29.19R
THUNDER BAY    MOCLDY    39  32  75 W10G17    29.32S
SIOUX LOOKOUT  FLURRIES  28  23  80 NW17G25   29.37R WCI  16
TORONTO        MOCLDY    34  21  60 SW21G26   29.70F WCI  22
BIG TROUT LK   FLURRIES   0  -6  78 NE6       29.49R WCI -12
PICKLE LAKE    LGT SNOW  19  16  86 N7G17     29.31R WCI  10
DRYDEN         CLOUDY    30  27  86 W9G21     29.41R WCI  22
KENORA         CLOUDY    28  25  86 W10G18    29.48R WCI  19
$$
                *** MANITOBA***

CITY           SKY/WX    TMP DP  RH WIND       PRES   REMARKS
BRANDON        PTCLDY    30  25  80 W12       29.53R WCI  21
DAUPHIN        CLOUDY    23  19  86 NE13      29.52R WCI  11
ISLAND LAKE    CLOUDY     3   0  85 NE7       29.56R WCI  -9
PILOT MOUND      N/A     32  27  80 W7          N/A
THE PAS        FLURRIES   9   3  78 E5        29.59R WCI   0
THOMPSON       FLURRIES   1  -2  85 NE9       29.67R WCI -14
WINNIPEG       CLOUDY    32  28  86 W3        29.53R
LYNN LAKE      CLOUDY    -6  -8  92 E9        29.66R WCI -22
CHURCHILL      FLURRIES   3   0  85 NE8       29.80R WCI -10
$$
                ***SASKATCHEWAN***

CITY           SKY/WX    TMP DP  RH WIND       PRES   REMARKS
ESTEVAN        CLEAR     23  19  86 SW8       29.62R WCI  14
KINDERSLEY     MOCLDY    27  21  80 SW6       29.56S WCI  20
LLOYDMINSTER   MOCLDY    30  25  80 W12       29.49R WCI  21
PRINCE ALBERT  CLOUDY    30  25  80 W3        29.51R
REGINA         CLEAR     25  21  86 W8        29.58R WCI  16
YORKTON        CLEAR     28  23  80 W10       29.51S WCI  19
N. BATTLEFORD  MOCLDY    25  19  80 W2        29.53S
LA RONGE       LGT SNOW  12  10  92 N6        29.53R WCI   3
SASKATOON      CLEAR     21  19  93 SW7       29.54S WCI  13
SWIFT CURRENT  CLEAR     28  23  80 SW13      29.57F WCI  18
$$
NOTE: THESE ARE AUTOMATED STATIONS WITH LIMITED QUALITY CONTROL
      "FAIR" INDICATES FEW OR NO CLOUDS BELOW 12,000 FEET WITH NO
      SIGNIFICANT WEATHER AND/OR OBSTRUCTIONS TO VISIBILITY.
      SKY/WX - SKY CONDITION AND SIGNIFICANT WEATHER.
      TMP - AIR TEMPERATURE.    DP   - DEWPOINT TEMPERATURE.
      RH  - RELATIVE HUMIDITY.  PRES - PRESSURE.
      HX  - HEAT INDEX.         WCI  - WIND CHILL INDEX.
$



USA.gov is the U.S. government's official web portal to all federal, state and local government web resources and services.